Time,TemperatureF,DewpointF,PressureIn,WindDirection,WindDirectionDegrees,WindSpeedMPH,WindSpeedGustMPH,Humidity,HourlyPrecipIn,Conditions,Clouds,dailyrainin,SolarRadiationWatts/m^2,SoftwareType,DateUTC
2013-01-12 00:01:00,25.3,10.6,29.74,WSW,248,10.0,15.0,53,0.00,CLR,SCT,0.00,0.0,WeatherDisplay:10.37,2013-01-12 06:01:00,
2013-01-12 00:06:00,25.2,10.4,29.74,NNW,338,9.2,12.7,53,0.00,CLR,SCT,0.00,0.0,WeatherDisplay:10.37,2013-01-12 06:06:00,
2013-01-12 00:12:00,25.2,11.2,29.74,WNW,292,7.8,13.8,55,0.00,CLR,SCT,0.00,0.0,WeatherDisplay:10.37,2013-01-12 06:12:00,
2013-01-12 00:17:00,25.0,11.5,29.74,NNW,338,8.1,12.8,56,0.00,CLR,SCT,0.00,0.0,WeatherDisplay:10.37,2013-01-12 06:17:00,
2013-01-12 00:22:00,24.4,9.3,29.74,WSW,248,12.5,15.0,52,0.00,CLR,SCT,0.00,0.0,WeatherDisplay:10.37,2013-01-12 06:22:00,
2013-01-12 00:27:00,23.9,7.5,29.77,WNW,292,10.0,15.0,49,0.00,CLR,SCT,0.00,0.0,WeatherDisplay:10.37,2013-01-12 06:27:00,
2013-01-12 00:32:00,23.5,6.2,29.77,WSW,248,11.4,16.1,47,0.00,CLR,SCT,0.00,0.0,WeatherDisplay:10.37,2013-01-12 06:32:00,
2013-01-12 00:37:00,23.4,6.1,29.77,WNW,292,7.4,17.5,47,0.00,CLR,SCT,0.00,0.0,WeatherDisplay:10.37,2013-01-12 06:37:00,
2013-01-12 00:43:00,23.2,6.8,29.74,North,0,9.4,15.0,49,0.00,CLR,SCT,0.00,0.0,WeatherDisplay:10.37,2013-01-12 06:43:00,
2013-01-12 00:48:00,23.0,7.1,29.74,West,270,9.8,16.1,50,0.00,CLR,SCT,0.00,0.0,WeatherDisplay:10.37,2013-01-12 06:48:00,
2013-01-12 00:53:00,23.0,7.5,29.74,NNW,338,9.4,13.8,51,0.00,CLR,SCT,0.00,0.0,WeatherDisplay:10.37,2013-01-12 06:53:00,
2013-01-12 00:58:00,22.8,7.8,29.77,West,270,9.0,13.0,52,0.00,CLR,SCT,0.00,0.0,WeatherDisplay:10.37,2013-01-12 06:58:00,
2013-01-12 01:03:00,22.8,6.9,29.77,NNW,338,6.2,17.3,50,0.00,CLR,SCT,0.00,0.0,WeatherDisplay:10.37,2013-01-12 07:03:00,
2013-01-12 01:08:00,22.8,6.0,29.80,NE,45,7.6,17.3,48,0.00,CLR,SCT,0.00,0.0,WeatherDisplay:10.37,2013-01-12 07:08:00,
2013-01-12 01:13:00,22.6,5.9,29.80,NNW,338,6.4,11.5,48,0.00,CLR,SCT,0.00,0.0,WeatherDisplay:10.37,2013-01-12 07:13:00,
2013-01-12 01:18:00,22.6,6.3,29.80,WNW,292,5.9,9.2,49,0.00,CLR,SCT,0.00,0.0,WeatherDisplay:10.37,2013-01-12 07:18:00,
2013-01-12 01:23:00,22.5,6.6,29.83,SW,225,4.5,7.4,50,0.00,CLR,SCT,0.00,0.0,WeatherDisplay:10.37,2013-01-12 07:23:00,
2013-01-12 01:28:00,22.5,6.6,29.83,West,270,11.2,16.1,50,0.00,CLR,SCT,0.00,0.0,WeatherDisplay:10.37,2013-01-12 07:28:00,
2013-01-12 01:33:00,22.3,5.5,29.83,NNW,338,9.7,23.0,48,0.00,CLR,SCT,0.00,0.0,WeatherDisplay:10.37,2013-01-12 07:33:00,
2013-01-12 01:38:00,22.3,5.1,29.83,NNW,338,8.5,16.1,47,0.00,CLR,SCT,0.00,0.0,WeatherDisplay:10.37,2013-01-12 07:38:00,
2013-01-12 01:43:00,22.3,5.1,29.83,NW,315,8.5,9.2,47,0.00,CLR,SCT,0.00,0.0,WeatherDisplay:10.37,2013-01-12 07:43:00,
2013-01-12 01:48:00,22.3,4.6,29.83,NW,315,6.9,11.5,46,0.00,CLR,SCT,0.00,0.0,WeatherDisplay:10.37,2013-01-12 07:48:00,
2013-01-12 01:53:00,22.1,4.0,29.85,NNW,338,8.1,13.2,45,0.00,CLR,SCT,0.00,0.0,WeatherDisplay:10.37,2013-01-12 07:53:00,
2013-01-12 01:58:00,22.1,4.0,29.85,WNW,292,7.6,10.0,45,0.00,CLR,SCT,0.00,0.0,WeatherDisplay:10.37,2013-01-12 07:58:00,
2013-01-12 02:03:00,21.9,3.8,29.85,NNE,22,6.9,11.5,45,0.00,CLR,SCT,0.00,0.0,WeatherDisplay:10.37,2013-01-12 08:03:00,
2013-01-12 02:08:00,21.9,3.8,29.85,ENE,68,7.8,12.7,45,0.00,CLR,SCT,0.00,0.0,WeatherDisplay:10.37,2013-01-12 08:08:00,
2013-01-12 02:13:00,21.9,4.3,29.85,NW,315,6.7,10.4,46,0.00,CLR,SCT,0.00,0.0,WeatherDisplay:10.37,2013-01-12 08:13:00,
2013-01-12 02:19:00,21.7,4.1,29.85,NNW,338,6.0,10.4,46,0.00,CLR,SCT,0.00,0.0,WeatherDisplay:10.37,2013-01-12 08:19:00,
2013-01-12 02:24:00,21.6,4.4,29.88,NNE,22,6.7,10.0,47,0.00,CLR,SCT,0.00,0.0,WeatherDisplay:10.37,2013-01-12 08:24:00,
2013-01-12 02:29:00,21.6,4.9,29.88,West,270,5.4,6.9,48,0.00,CLR,SCT,0.00,0.0,WeatherDisplay:10.37,2013-01-12 08:29:00,
2013-01-12 02:34:00,21.6,5.3,29.88,NNW,338,3.8,9.2,49,0.00,CLR,SCT,0.00,0.0,WeatherDisplay:10.37,2013-01-12 08:34:00,
2013-01-12 02:39:00,21.6,4.9,29.88,WSW,248,5.4,10.4,48,0.00,CLR,SCT,0.00,0.0,WeatherDisplay:10.37,2013-01-12 08:39:00,
2013-01-12 02:44:00,21.6,5.3,29.88,NNE,22,4.9,9.2,49,0.00,CLR,SCT,0.00,0.0,WeatherDisplay:10.37,2013-01-12 08:44:00,
2013-01-12 02:49:00,21.4,5.2,29.88,WSW,248,4.7,5.8,49,0.00,CLR,SCT,0.00,0.0,WeatherDisplay:10.37,2013-01-12 08:49:00,
2013-01-12 02:54:00,21.4,5.6,29.88,WNW,292,4.0,8.5,50,0.00,CLR,SCT,0.00,0.0,WeatherDisplay:10.37,2013-01-12 08:54:00,
2013-01-12 02:59:00,21.4,5.2,29.88,NNW,338,5.9,8.1,49,0.00,CLR,SCT,0.00,0.0,WeatherDisplay:10.37,2013-01-12 08:59:00,
2013-01-12 03:04:00,21.4,6.0,29.88,WNW,292,4.7,5.8,51,0.00,CLR,SCT,0.00,0.0,WeatherDisplay:10.37,2013-01-12 09:04:00,
2013-01-12 03:09:00,21.4,5.6,29.88,WNW,292,5.6,5.8,50,0.00,CLR,SCT,0.00,0.0,WeatherDisplay:10.37,2013-01-12 09:09:00,
2013-01-12 03:15:00,21.2,4.5,29.88,NW,311,7.0,13.0,48,0.00,CLR,SCT,0.00,0.0,WeatherDisplay:10.37,2013-01-12 09:15:00,
2013-01-12 03:20:00,21.2,4.5,29.88,WNW,292,7.1,10.7,48,0.00,CLR,SCT,0.00,0.0,WeatherDisplay:10.37,2013-01-12 09:20:00,
2013-01-12 03:25:00,21.2,4.5,29.91,NNW,338,5.6,6.0,48,0.00,CLR,SCT,0.00,0.0,WeatherDisplay:10.37,2013-01-12 09:25:00,
2013-01-12 03:30:00,21.2,4.5,29.91,WNW,292,4.5,5.8,48,0.00,CLR,SCT,0.00,0.0,WeatherDisplay:10.37,2013-01-12 09:30:00,
2013-01-12 03:35:00,21.2,5.0,29.91,WNW,292,7.4,9.2,49,0.00,CLR,SCT,0.00,0.0,WeatherDisplay:10.37,2013-01-12 09:35:00,
2013-01-12 03:40:00,21.0,5.3,29.94,NNW,338,4.7,8.1,50,0.00,CLR,SCT,0.00,0.0,WeatherDisplay:10.37,2013-01-12 09:40:00,
2013-01-12 03:45:00,20.8,5.1,29.94,NNW,338,4.7,11.5,50,0.00,CLR,SCT,0.00,0.0,WeatherDisplay:10.37,2013-01-12 09:45:00,
2013-01-12 03:50:00,20.8,5.1,29.94,WSW,248,6.2,8.1,50,0.00,CLR,SCT,0.00,0.0,WeatherDisplay:10.37,2013-01-12 09:50:00,
2013-01-12 03:55:00,20.8,4.2,29.91,NNW,338,6.9,7.4,48,0.00,CLR,SCT,0.00,0.0,WeatherDisplay:10.37,2013-01-12 09:55:00,
2013-01-12 04:00:00,20.7,4.0,29.91,WSW,248,6.0,10.4,48,0.00,CLR,SCT,0.00,0.0,WeatherDisplay:10.37,2013-01-12 10:00:00,
2013-01-12 04:05:00,20.5,3.4,29.91,WNW,292,5.4,10.4,47,0.00,CLR,SCT,0.00,0.0,WeatherDisplay:10.37,2013-01-12 10:05:00,
2013-01-12 04:10:00,20.3,3.2,29.94,West,270,4.5,10.4,47,0.00,CLR,SCT,0.00,0.0,WeatherDisplay:10.37,2013-01-12 10:10:00,
2013-01-12 04:16:00,20.3,3.7,29.94,West,270,7.1,11.5,48,0.00,CLR,SCT,0.00,0.0,WeatherDisplay:10.37,2013-01-12 10:16:00,
2013-01-12 04:21:00,20.1,3.5,29.94,SSW,202,7.1,12.7,48,0.00,CLR,SCT,0.00,0.0,WeatherDisplay:10.37,2013-01-12 10:21:00,
2013-01-12 04:26:00,19.9,2.5,29.94,NNW,338,8.5,10.4,46,0.00,CLR,SCT,0.00,0.0,WeatherDisplay:10.37,2013-01-12 10:26:00,
2013-01-12 04:31:00,19.8,2.3,29.94,WSW,248,9.2,11.5,46,0.00,CLR,SCT,0.00,0.0,WeatherDisplay:10.37,2013-01-12 10:31:00,
2013-01-12 04:36:00,19.6,2.1,29.94,WNW,292,5.6,10.4,46,0.00,CLR,SCT,0.00,0.0,WeatherDisplay:10.37,2013-01-12 10:36:00,
2013-01-12 04:42:00,19.4,2.4,29.94,North,0,5.4,7.6,47,0.00,CLR,SCT,0.00,0.0,WeatherDisplay:10.37,2013-01-12 10:42:00,
2013-01-12 04:47:00,19.4,2.4,29.94,WSW,248,4.9,8.1,47,0.00,CLR,SCT,0.00,0.0,WeatherDisplay:10.37,2013-01-12 10:47:00,
2013-01-12 04:52:00,19.2,2.7,29.94,West,270,4.7,5.8,48,0.00,CLR,SCT,0.00,0.0,WeatherDisplay:10.37,2013-01-12 10:52:00,
2013-01-12 04:57:00,19.2,2.7,29.91,WNW,292,4.5,8.1,48,0.00,CLR,SCT,0.00,0.0,WeatherDisplay:10.37,2013-01-12 10:57:00,
2013-01-12 05:02:00,19.2,2.3,29.91,North,0,6.2,9.2,47,0.00,CLR,SCT,0.00,0.0,WeatherDisplay:10.37,2013-01-12 11:02:00,
2013-01-12 05:07:00,19.2,2.3,29.91,NNW,338,4.9,6.9,47,0.00,CLR,SCT,0.00,0.0,WeatherDisplay:10.37,2013-01-12 11:07:00,
2013-01-12 05:12:00,19.0,2.1,29.94,NW,315,4.9,6.9,47,0.00,CLR,SCT,0.00,0.0,WeatherDisplay:10.37,2013-01-12 11:12:00,
2013-01-12 05:17:00,19.0,2.5,29.94,West,270,3.6,6.9,48,0.00,CLR,SCT,0.00,0.0,WeatherDisplay:10.37,2013-01-12 11:17:00,
2013-01-12 05:22:00,18.7,2.7,29.94,WNW,292,3.6,4.6,49,0.00,CLR,SCT,0.00,0.0,WeatherDisplay:10.37,2013-01-12 11:22:00,
2013-01-12 05:27:00,18.7,3.1,29.94,NW,315,6.2,8.1,50,0.00,CLR,SCT,0.00,0.0,WeatherDisplay:10.37,2013-01-12 11:27:00,
2013-01-12 05:32:00,18.7,2.7,29.94,West,270,6.9,10.4,49,0.00,CLR,SCT,0.00,0.0,WeatherDisplay:10.37,2013-01-12 11:32:00,
2013-01-12 05:37:00,18.7,2.7,29.94,WNW,292,5.9,9.2,49,0.00,CLR,SCT,0.00,0.0,WeatherDisplay:10.37,2013-01-12 11:37:00,
2013-01-12 05:42:00,18.7,2.2,29.97,WNW,292,4.5,8.1,48,0.00,CLR,SCT,0.00,0.0,WeatherDisplay:10.37,2013-01-12 11:42:00,
2013-01-12 05:47:00,18.5,2.5,29.97,NNW,338,5.9,7.1,49,0.00,CLR,SCT,0.00,0.0,WeatherDisplay:10.37,2013-01-12 11:47:00,
2013-01-12 05:52:00,18.5,2.5,29.97,WNW,292,6.2,10.0,49,0.00,CLR,SCT,0.00,0.0,WeatherDisplay:10.37,2013-01-12 11:52:00,
2013-01-12 05:57:00,18.3,1.9,29.97,West,270,4.0,6.9,48,0.00,CLR,SCT,0.00,0.0,WeatherDisplay:10.37,2013-01-12 11:57:00,
2013-01-12 06:02:00,18.3,2.3,29.97,WSW,248,2.9,5.8,49,0.00,CLR,SCT,0.00,0.0,WeatherDisplay:10.37,2013-01-12 12:02:00,
2013-01-12 06:07:00,18.1,3.0,29.97,West,270,3.6,5.8,51,0.00,CLR,SCT,0.00,0.0,WeatherDisplay:10.37,2013-01-12 12:07:00,
2013-01-12 06:12:00,18.1,3.4,29.97,West,270,3.1,3.5,52,0.00,CLR,SCT,0.00,0.0,WeatherDisplay:10.37,2013-01-12 12:12:00,
2013-01-12 06:17:00,17.8,3.5,29.97,WNW,292,1.4,2.3,53,0.00,CLR,SCT,0.00,0.0,WeatherDisplay:10.37,2013-01-12 12:17:00,
2013-01-12 06:22:00,17.6,3.8,29.97,WNW,292,2.2,3.5,54,0.00,CLR,SCT,0.00,0.0,WeatherDisplay:10.37,2013-01-12 12:22:00,
2013-01-12 06:27:00,17.4,3.6,29.97,WNW,292,3.1,5.8,54,0.00,CLR,SCT,0.00,0.0,WeatherDisplay:10.37,2013-01-12 12:27:00,
2013-01-12 06:33:00,17.4,3.6,29.97,NNW,338,2.6,4.6,54,0.00,CLR,SCT,0.00,0.0,WeatherDisplay:10.37,2013-01-12 12:33:00,
2013-01-12 06:38:00,17.4,3.6,29.97,West,270,3.8,5.8,54,0.00,CLR,SCT,0.00,0.0,WeatherDisplay:10.37,2013-01-12 12:38:00,
2013-01-12 06:43:00,17.4,3.6,29.97,WNW,292,3.3,5.8,54,0.00,CLR,SCT,0.00,0.0,WeatherDisplay:10.37,2013-01-12 12:43:00,
2013-01-12 06:48:00,17.6,4.2,29.97,WNW,292,4.3,5.8,55,0.00,CLR,SCT,0.00,0.0,WeatherDisplay:10.37,2013-01-12 12:48:00,
2013-01-12 06:53:00,17.4,4.0,29.94,NNW,338,2.9,3.5,55,0.00,CLR,SCT,0.00,0.0,WeatherDisplay:10.37,2013-01-12 12:53:00,
2013-01-12 06:58:00,17.6,4.9,29.94,WNW,292,4.9,5.9,57,0.00,CLR,SCT,0.00,0.0,WeatherDisplay:10.37,2013-01-12 12:58:00,
2013-01-12 07:03:00,17.6,4.9,29.94,WNW,292,3.6,8.1,57,0.00,CLR,SCT,0.00,0.0,WeatherDisplay:10.37,2013-01-12 13:03:00,
2013-01-12 07:08:00,17.2,3.8,29.94,WSW,248,3.8,5.8,55,0.00,CLR,SCT,0.00,0.0,WeatherDisplay:10.37,2013-01-12 13:08:00,
2013-01-12 07:13:00,17.1,3.6,29.94,West,270,4.5,5.8,55,0.00,CLR,SCT,0.00,0.0,WeatherDisplay:10.37,2013-01-12 13:13:00,
2013-01-12 07:18:00,17.1,3.3,29.94,West,270,6.2,8.1,54,0.00,CLR,SCT,0.00,0.0,WeatherDisplay:10.37,2013-01-12 13:18:00,
2013-01-12 07:23:00,16.9,2.7,29.97,WNW,292,5.6,9.2,53,0.00,OVC,SCT,0.00,0.0,WeatherDisplay:10.37,2013-01-12 13:23:00,
2013-01-12 07:28:00,16.9,2.3,29.97,NNW,338,3.6,8.1,52,0.00,OVC,SCT,0.00,0.0,WeatherDisplay:10.37,2013-01-12 13:28:00,
2013-01-12 07:34:00,16.9,2.3,29.97,NNW,338,4.9,9.2,52,0.00,OVC,SCT,0.00,0.0,WeatherDisplay:10.37,2013-01-12 13:34:00,
2013-01-12 07:39:00,16.7,1.7,30.00,West,270,6.2,7.1,51,0.00,OVC,SCT,0.00,0.0,WeatherDisplay:10.37,2013-01-12 13:39:00,
2013-01-12 07:44:00,16.7,2.1,30.00,WNW,292,4.0,8.1,52,0.00,OVC,SCT,0.00,0.0,WeatherDisplay:10.37,2013-01-12 13:44:00,
2013-01-12 07:49:00,16.5,2.3,30.00,West,270,4.7,8.1,53,0.00,OVC,SCT,0.00,0.0,WeatherDisplay:10.37,2013-01-12 13:49:00,
2013-01-12 07:54:00,16.5,2.3,30.00,WNW,292,2.9,5.8,53,0.00,OVC,SCT,0.00,0.0,WeatherDisplay:10.37,2013-01-12 13:54:00,
2013-01-12 07:59:00,16.5,2.7,30.00,West,270,3.6,5.8,54,0.00,OVC,SCT,0.00,0.0,WeatherDisplay:10.37,2013-01-12 13:59:00,
2013-01-12 08:04:00,16.5,3.1,30.00,WNW,292,4.0,5.8,55,0.00,OVC,SCT,0.00,0.0,WeatherDisplay:10.37,2013-01-12 14:04:00,
2013-01-12 08:09:00,16.5,3.1,30.00,WNW,292,5.6,8.1,55,0.00,OVC,SCT,0.00,0.0,WeatherDisplay:10.37,2013-01-12 14:09:00,
2013-01-12 08:14:00,16.5,3.5,30.00,West,270,3.8,5.8,56,0.00,OVC,SCT,0.00,0.0,WeatherDisplay:10.37,2013-01-12 14:14:00,
2013-01-12 08:19:00,16.5,3.9,30.00,WSW,248,4.7,6.9,57,0.00,OVC,SCT,0.00,0.0,WeatherDisplay:10.37,2013-01-12 14:19:00,
2013-01-12 08:24:00,16.7,4.1,30.00,WNW,292,4.5,6.2,57,0.00,OVC,SCT,0.00,0.0,WeatherDisplay:10.37,2013-01-12 14:24:00,
2013-01-12 08:29:00,16.7,3.7,30.00,WNW,292,4.7,8.1,56,0.00,OVC,SCT,0.00,0.0,WeatherDisplay:10.37,2013-01-12 14:29:00,
2013-01-12 08:34:00,16.9,3.5,30.00,WNW,292,4.3,8.1,55,0.00,OVC,SCT,0.00,0.0,WeatherDisplay:10.37,2013-01-12 14:34:00,
2013-01-12 08:40:00,17.1,3.6,29.97,WNW,292,3.6,5.8,55,0.00,OVC,SCT,0.00,0.0,WeatherDisplay:10.37,2013-01-12 14:40:00,
2013-01-12 08:45:00,17.4,3.6,29.97,WSW,248,7.6,7.6,54,0.00,OVC,SCT,0.00,0.0,WeatherDisplay:10.37,2013-01-12 14:45:00,
2013-01-12 08:50:00,17.6,3.3,29.97,WNW,292,6.7,8.1,53,0.00,OVC,SCT,0.00,0.0,WeatherDisplay:10.37,2013-01-12 14:50:00,
2013-01-12 08:55:00,17.4,1.9,30.00,North,0,6.0,9.7,50,0.00,OVC,SCT,0.00,0.0,WeatherDisplay:10.37,2013-01-12 14:55:00,
2013-01-12 09:00:00,17.6,2.5,30.00,West,270,4.3,6.4,51,0.00,OVC,SCT,0.00,0.0,WeatherDisplay:10.37,2013-01-12 15:00:00,
2013-01-12 09:05:00,17.4,1.0,30.00,WNW,292,6.2,8.1,48,0.00,OVC,SCT,0.00,0.0,WeatherDisplay:10.37,2013-01-12 15:05:00,
2013-01-12 09:10:00,17.4,0.6,30.00,WSW,248,4.9,8.5,47,0.00,OVC,SCT,0.00,0.0,WeatherDisplay:10.37,2013-01-12 15:10:00,
2013-01-12 09:15:00,17.8,1.4,30.00,West,270,6.0,8.1,48,0.00,OVC,SCT,0.00,0.0,WeatherDisplay:10.37,2013-01-12 15:15:00,
2013-01-12 09:20:00,17.8,0.5,30.00,WSW,248,4.5,9.2,46,0.00,OVC,SCT,0.00,0.0,WeatherDisplay:10.37,2013-01-12 15:20:00,
2013-01-12 09:25:00,18.3,1.0,30.06,West,270,4.5,6.9,46,0.00,OVC,SCT,0.00,0.0,WeatherDisplay:10.37,2013-01-12 15:25:00,
2013-01-12 09:30:00,17.6,-0.2,30.06,NNW,338,4.3,6.9,45,0.00,OVC,SCT,0.00,0.0,WeatherDisplay:10.37,2013-01-12 15:30:00,
2013-01-12 09:35:00,18.1,0.3,30.06,WNW,292,7.4,10.4,45,0.00,OVC,SCT,0.00,0.0,WeatherDisplay:10.37,2013-01-12 15:35:00,
2013-01-12 09:40:00,18.3,0.0,30.03,NNW,338,7.1,10.4,44,0.00,OVC,SCT,0.00,0.0,WeatherDisplay:10.37,2013-01-12 15:40:00,
2013-01-12 09:46:00,18.5,0.2,30.03,WSW,248,4.7,9.2,44,0.00,OVC,SCT,0.00,0.0,WeatherDisplay:10.37,2013-01-12 15:46:00,
2013-01-12 09:51:00,19.0,1.2,30.03,NW,315,4.9,6.9,45,0.00,OVC,SCT,0.00,0.0,WeatherDisplay:10.37,2013-01-12 15:51:00,
2013-01-12 09:56:00,19.2,0.8,30.06,WNW,292,4.9,6.9,44,0.00,OVC,SCT,0.00,0.0,WeatherDisplay:10.37,2013-01-12 15:56:00,
2013-01-12 10:01:00,19.6,1.2,30.06,WNW,292,5.6,6.2,44,0.00,OVC,SCT,0.00,0.0,WeatherDisplay:10.37,2013-01-12 16:01:00,
2013-01-12 10:06:00,19.4,1.0,30.06,NNW,338,6.2,9.2,44,0.00,OVC,SCT,0.00,0.0,WeatherDisplay:10.37,2013-01-12 16:06:00,
2013-01-12 10:11:00,19.6,1.2,30.06,NNW,338,5.4,10.4,44,0.00,OVC,SCT,0.00,0.0,WeatherDisplay:10.37,2013-01-12 16:11:00,
2013-01-12 10:16:00,19.2,0.3,30.06,NNE,22,8.1,8.1,43,0.00,OVC,SCT,0.00,0.0,WeatherDisplay:10.37,2013-01-12 16:16:00,
2013-01-12 10:21:00,18.7,-0.1,30.06,WSW,248,5.6,5.9,43,0.00,OVC,SCT,0.00,0.0,WeatherDisplay:10.37,2013-01-12 16:21:00,
2013-01-12 10:26:00,19.4,1.0,30.06,SW,225,7.1,9.4,44,0.00,OVC,SCT,0.00,0.0,WeatherDisplay:10.37,2013-01-12 16:26:00,
2013-01-12 10:31:00,19.2,0.8,30.06,NNE,22,5.4,9.2,44,0.00,OVC,SCT,0.00,0.0,WeatherDisplay:10.37,2013-01-12 16:31:00,
2013-01-12 10:36:00,19.2,0.8,30.06,West,270,5.6,6.9,44,0.00,OVC,SCT,0.00,0.0,WeatherDisplay:10.37,2013-01-12 16:36:00,
2013-01-12 10:41:00,19.4,1.0,30.06,WNW,292,6.9,9.8,44,0.00,OVC,SCT,0.00,0.0,WeatherDisplay:10.37,2013-01-12 16:41:00,
2013-01-12 10:46:00,18.9,1.0,30.06,West,270,9.0,13.8,45,0.00,OVC,SCT,0.00,0.0,WeatherDisplay:10.37,2013-01-12 16:46:00,
2013-01-12 10:51:00,19.6,2.1,30.06,NNW,338,6.2,12.7,46,0.00,OVC,SCT,0.00,0.0,WeatherDisplay:10.37,2013-01-12 16:51:00,
2013-01-12 10:56:00,19.4,0.5,30.06,West,270,8.1,9.2,43,0.00,OVC,SCT,0.00,0.0,WeatherDisplay:10.37,2013-01-12 16:56:00,
2013-01-12 11:01:00,19.9,1.0,30.06,West,270,4.3,6.9,43,0.00,OVC,SCT,0.00,0.0,WeatherDisplay:10.37,2013-01-12 17:01:00,
2013-01-12 11:06:00,20.3,1.3,30.06,North,0,4.9,8.1,43,0.00,OVC,SCT,0.00,0.0,WeatherDisplay:10.37,2013-01-12 17:06:00,
2013-01-12 11:12:00,19.8,0.8,30.03,West,270,6.2,9.2,43,0.00,OVC,SCT,0.00,0.0,WeatherDisplay:10.37,2013-01-12 17:12:00,
2013-01-12 11:17:00,19.8,0.8,30.03,WSW,248,4.9,9.2,43,0.00,OVC,SCT,0.00,0.0,WeatherDisplay:10.37,2013-01-12 17:17:00,
2013-01-12 11:22:00,20.3,1.3,30.03,WNW,292,8.5,10.4,43,0.00,OVC,SCT,0.00,0.0,WeatherDisplay:10.37,2013-01-12 17:22:00,
2013-01-12 11:27:00,20.7,1.7,30.06,WNW,292,6.2,9.2,43,0.00,OVC,SCT,0.00,0.0,WeatherDisplay:10.37,2013-01-12 17:27:00,
2013-01-12 11:32:00,20.7,1.7,30.06,WNW,292,6.9,10.7,43,0.00,OVC,SCT,0.00,0.0,WeatherDisplay:10.37,2013-01-12 17:32:00,
2013-01-12 11:37:00,20.8,1.8,30.06,WSW,248,4.9,9.8,43,0.00,OVC,SCT,0.00,0.0,WeatherDisplay:10.37,2013-01-12 17:37:00,
2013-01-12 11:42:00,20.5,1.0,30.06,WNW,292,6.2,9.2,42,0.00,OVC,SCT,0.00,0.0,WeatherDisplay:10.37,2013-01-12 17:42:00,
2013-01-12 11:47:00,21.2,2.2,30.06,WSW,248,4.9,5.8,43,0.00,OVC,SCT,0.00,0.0,WeatherDisplay:10.37,2013-01-12 17:47:00,
2013-01-12 11:52:00,20.8,0.8,30.06,WNW,292,6.7,10.4,41,0.00,OVC,SCT,0.00,0.0,WeatherDisplay:10.37,2013-01-12 17:52:00,
2013-01-12 11:57:00,21.0,1.0,30.06,NNW,338,6.4,9.2,41,0.00,OVC,SCT,0.00,0.0,WeatherDisplay:10.37,2013-01-12 17:57:00,
2013-01-12 12:02:00,21.2,1.1,30.06,WNW,292,6.2,10.4,41,0.00,OVC,SCT,0.00,0.0,WeatherDisplay:10.37,2013-01-12 18:02:00,
2013-01-12 12:07:00,21.2,2.2,30.06,West,270,4.7,10.4,43,0.00,OVC,SCT,0.00,0.0,WeatherDisplay:10.37,2013-01-12 18:07:00,
2013-01-12 12:12:00,21.0,0.4,30.03,NNW,338,7.6,11.5,40,0.00,OVC,SCT,0.00,0.0,WeatherDisplay:10.37,2013-01-12 18:12:00,
2013-01-12 12:17:00,20.8,0.3,30.03,WNW,292,4.5,8.1,40,0.00,OVC,SCT,0.00,0.0,WeatherDisplay:10.37,2013-01-12 18:17:00,
2013-01-12 12:23:00,21.6,2.0,30.03,NNW,338,3.8,6.4,42,0.00,OVC,SCT,0.00,0.0,WeatherDisplay:10.37,2013-01-12 18:23:00,
2013-01-12 12:28:00,21.6,1.5,30.03,East,90,4.9,12.7,41,0.00,OVC,SCT,0.00,0.0,WeatherDisplay:10.37,2013-01-12 18:28:00,
2013-01-12 12:33:00,21.9,1.2,30.03,West,270,6.4,8.1,40,0.00,OVC,SCT,0.00,0.0,WeatherDisplay:10.37,2013-01-12 18:33:00,
2013-01-12 12:38:00,21.6,0.4,30.00,NNW,338,5.9,8.1,39,0.00,OVC,SCT,0.00,0.0,WeatherDisplay:10.37,2013-01-12 18:38:00,
2013-01-12 12:43:00,21.7,0.5,30.00,WSW,248,6.4,9.2,39,0.00,OVC,SCT,0.00,0.0,WeatherDisplay:10.37,2013-01-12 18:43:00,
2013-01-12 12:48:00,21.6,0.9,30.00,NNW,338,7.8,12.7,40,0.00,OVC,SCT,0.00,0.0,WeatherDisplay:10.37,2013-01-12 18:48:00,
2013-01-12 12:53:00,21.2,-0.5,30.00,WSW,248,6.2,9.2,38,0.00,OVC,SCT,0.00,0.0,WeatherDisplay:10.37,2013-01-12 18:53:00,
2013-01-12 12:59:00,20.7,0.1,30.00,North,0,5.6,9.2,40,0.00,OVC,SCT,0.00,0.0,WeatherDisplay:10.37,2013-01-12 18:59:00,
2013-01-12 13:04:00,21.0,1.5,30.00,North,0,4.0,6.9,42,0.00,OVC,SCT,0.00,0.0,WeatherDisplay:10.37,2013-01-12 19:04:00,
2013-01-12 13:09:00,21.0,1.0,30.00,NW,315,6.7,10.4,41,0.00,OVC,SCT,0.00,100.0,WeatherDisplay:10.37,2013-01-12 19:09:00,
2013-01-12 13:14:00,21.0,-0.1,30.00,NNW,338,7.6,11.5,39,0.00,OVC,SCT,0.00,0.0,WeatherDisplay:10.37,2013-01-12 19:14:00,
2013-01-12 13:19:00,21.2,0.6,30.00,NNW,338,4.3,8.1,40,0.00,OVC,SCT,0.00,0.0,WeatherDisplay:10.37,2013-01-12 19:19:00,
2013-01-12 13:24:00,21.4,0.2,29.97,North,0,6.7,9.2,39,0.00,OVC,SCT,0.00,0.0,WeatherDisplay:10.37,2013-01-12 19:24:00,
2013-01-12 13:29:00,21.6,0.4,29.97,WNW,292,7.4,10.4,39,0.00,OVC,SCT,0.00,0.0,WeatherDisplay:10.37,2013-01-12 19:29:00,
2013-01-12 13:34:00,21.9,0.7,29.97,West,270,7.8,10.4,39,0.00,OVC,SCT,0.00,0.0,WeatherDisplay:10.37,2013-01-12 19:34:00,
2013-01-12 13:39:00,22.5,2.8,30.00,NW,315,4.7,9.8,42,0.00,OVC,SCT,0.00,0.0,WeatherDisplay:10.37,2013-01-12 19:39:00,
2013-01-12 13:44:00,22.1,0.9,30.00,WSW,248,7.1,10.0,39,0.00,OVC,SCT,0.00,0.0,WeatherDisplay:10.37,2013-01-12 19:44:00,
2013-01-12 13:49:00,21.9,0.7,30.00,WSW,248,5.4,7.6,39,0.00,OVC,SCT,0.00,0.0,WeatherDisplay:10.37,2013-01-12 19:49:00,
2013-01-12 13:54:00,21.9,0.2,30.00,WNW,292,7.6,13.8,38,0.00,OVC,SCT,0.00,0.0,WeatherDisplay:10.37,2013-01-12 19:54:00,
2013-01-12 13:59:00,22.5,1.2,30.00,WNW,292,4.5,7.4,39,0.00,OVC,SCT,0.00,0.0,WeatherDisplay:10.37,2013-01-12 19:59:00,
2013-01-12 14:05:00,22.5,1.2,30.00,ENE,68,5.9,9.2,39,0.00,OVC,SCT,0.00,0.0,WeatherDisplay:10.37,2013-01-12 20:05:00,
2013-01-12 14:10:00,22.5,0.6,30.00,West,270,6.4,9.2,38,0.00,OVC,SCT,0.00,0.0,WeatherDisplay:10.37,2013-01-12 20:10:00,
2013-01-12 14:15:00,22.3,0.5,30.00,NNW,338,6.7,12.1,38,0.00,OVC,SCT,0.00,0.0,WeatherDisplay:10.37,2013-01-12 20:15:00,
2013-01-12 14:20:00,22.5,1.2,30.00,West,270,7.8,10.4,39,0.00,OVC,SCT,0.00,0.0,WeatherDisplay:10.37,2013-01-12 20:20:00,
2013-01-12 14:25:00,22.5,1.2,30.00,NW,315,4.9,8.1,39,0.00,OVC,SCT,0.00,0.0,WeatherDisplay:10.37,2013-01-12 20:25:00,
2013-01-12 14:30:00,22.5,1.7,30.00,NNW,338,5.4,9.2,40,0.00,OVC,SCT,0.00,0.0,WeatherDisplay:10.37,2013-01-12 20:30:00,
2013-01-12 14:35:00,21.9,0.7,30.00,NNE,22,7.1,10.7,39,0.00,OVC,SCT,0.00,0.0,WeatherDisplay:10.37,2013-01-12 20:35:00,
2013-01-12 14:40:00,21.4,0.8,30.00,NNW,338,6.0,10.4,40,0.00,OVC,SCT,0.00,0.0,WeatherDisplay:10.37,2013-01-12 20:40:00,
2013-01-12 14:45:00,20.8,0.8,30.00,NW,315,6.9,8.1,41,0.00,OVC,SCT,0.00,0.0,WeatherDisplay:10.37,2013-01-12 20:45:00,
2013-01-12 14:50:00,21.4,0.8,30.00,North,0,4.5,5.8,40,0.00,OVC,SCT,0.00,0.0,WeatherDisplay:10.37,2013-01-12 20:50:00,
2013-01-12 14:55:00,21.2,0.6,30.00,NNW,338,6.4,8.1,40,0.00,OVC,SCT,0.00,0.0,WeatherDisplay:10.37,2013-01-12 20:55:00,
2013-01-12 15:00:00,21.0,1.5,30.00,NNE,22,3.6,6.9,42,0.00,OVC,SCT,0.00,0.0,WeatherDisplay:10.37,2013-01-12 21:00:00,
2013-01-12 15:05:00,20.8,1.3,30.00,NW,315,5.4,8.1,42,0.00,OVC,SCT,0.00,0.0,WeatherDisplay:10.37,2013-01-12 21:05:00,
2013-01-12 15:11:00,21.0,2.0,30.00,West,270,3.3,4.6,43,0.00,OVC,SCT,0.00,0.0,WeatherDisplay:10.37,2013-01-12 21:11:00,
2013-01-12 15:16:00,20.8,1.3,30.00,NNW,338,5.4,6.9,42,0.00,OVC,SCT,0.00,0.0,WeatherDisplay:10.37,2013-01-12 21:16:00,
2013-01-12 15:21:00,21.4,1.8,30.00,NNW,338,6.7,12.7,42,0.00,OVC,SCT,0.00,0.0,WeatherDisplay:10.37,2013-01-12 21:21:00,
2013-01-12 15:26:00,21.9,2.3,30.00,NNW,338,6.0,9.2,42,0.00,OVC,SCT,0.00,0.0,WeatherDisplay:10.37,2013-01-12 21:26:00,
2013-01-12 15:31:00,21.6,1.5,30.00,North,0,4.3,8.1,41,0.00,OVC,SCT,0.00,0.0,WeatherDisplay:10.37,2013-01-12 21:31:00,
2013-01-12 15:36:00,21.4,0.8,30.00,WNW,292,5.4,7.6,40,0.00,OVC,SCT,0.00,0.0,WeatherDisplay:10.37,2013-01-12 21:36:00,
2013-01-12 15:41:00,21.0,1.0,30.00,NNW,338,5.6,6.9,41,0.00,OVC,SCT,0.00,0.0,WeatherDisplay:10.37,2013-01-12 21:41:00,
2013-01-12 15:45:00,9.0,-5.9,30.12,NW,320,7.0,11.0,50,0.00,OVC,SCT,0.08,198.0,WeatherDisplay:10.37,2013-01-12 21:45:00,
2013-01-12 15:46:00,20.7,0.6,30.00,ENE,68,4.9,6.9,41,0.00,OVC,SCT,0.00,0.0,WeatherDisplay:10.37,2013-01-12 21:46:00,
2013-01-12 15:51:00,20.3,0.8,30.00,West,270,3.8,6.9,42,0.00,OVC,SCT,0.00,0.0,WeatherDisplay:10.37,2013-01-12 21:51:00,
2013-01-12 15:56:00,20.1,1.2,30.03,NNW,338,4.9,6.9,43,0.00,OVC,SCT,0.00,0.0,WeatherDisplay:10.37,2013-01-12 21:56:00,
2013-01-12 16:00:00,9.0,-5.9,30.12,NW,324,7.0,8.0,50,0.00,OVC,SCT,0.08,164.0,WeatherDisplay:10.37,2013-01-12 22:00:00,
2013-01-12 16:01:00,19.9,0.5,30.03,NNW,338,6.4,9.2,42,0.00,OVC,SCT,0.00,0.0,WeatherDisplay:10.37,2013-01-12 22:01:00,
2013-01-12 16:06:00,19.9,1.0,30.03,WNW,292,3.8,8.1,43,0.00,OVC,SCT,0.00,0.0,WeatherDisplay:10.37,2013-01-12 22:06:00,
2013-01-12 16:11:00,19.8,0.8,30.03,WNW,292,6.9,8.1,43,0.00,OVC,SCT,0.00,0.0,WeatherDisplay:10.37,2013-01-12 22:11:00,
2013-01-12 16:15:00,9.1,-5.8,30.12,NW,324,2.0,6.0,50,0.00,OVC,SCT,0.08,130.0,WeatherDisplay:10.37,2013-01-12 22:15:00,
2013-01-12 16:16:00,19.6,0.7,30.03,West,270,4.7,6.9,43,0.00,OVC,SCT,0.00,0.0,WeatherDisplay:10.37,2013-01-12 22:16:00,
2013-01-12 16:21:00,19.4,1.0,30.03,WNW,292,5.4,8.1,44,0.00,OVC,SCT,0.00,0.0,WeatherDisplay:10.37,2013-01-12 22:21:00,
2013-01-12 16:27:00,19.2,0.8,30.03,ENE,68,6.4,8.1,44,0.00,OVC,SCT,0.00,0.0,WeatherDisplay:10.37,2013-01-12 22:27:00,
2013-01-12 16:32:00,19.2,0.8,30.03,NNE,22,3.6,4.6,44,0.00,OVC,SCT,0.00,0.0,WeatherDisplay:10.37,2013-01-12 22:32:00,
2013-01-12 16:37:00,19.0,1.2,30.03,WNW,292,3.1,8.1,45,0.00,OVC,SCT,0.00,0.0,WeatherDisplay:10.37,2013-01-12 22:37:00,
2013-01-12 16:42:00,18.7,0.3,30.06,WNW,292,4.3,6.9,44,0.00,OVC,SCT,0.00,0.0,WeatherDisplay:10.37,2013-01-12 22:42:00,
2013-01-12 16:47:00,18.5,0.2,30.06,North,0,3.6,5.8,44,0.00,OVC,SCT,0.00,0.0,WeatherDisplay:10.37,2013-01-12 22:47:00,
2013-01-12 16:52:00,18.5,0.2,30.06,ESE,112,5.4,6.0,44,0.00,OVC,SCT,0.00,0.0,WeatherDisplay:10.37,2013-01-12 22:52:00,
2013-01-12 16:57:00,18.5,0.2,30.03,NNE,22,3.6,5.8,44,0.00,OVC,SCT,0.00,0.0,WeatherDisplay:10.37,2013-01-12 22:57:00,
2013-01-12 17:00:00,8.6,-6.3,30.09,NNW,330,3.0,7.0,50,0.00,OVC,SCT,0.08,31.0,WeatherDisplay:10.37,2013-01-12 23:00:00,
2013-01-12 17:02:00,18.3,0.0,30.03,WNW,292,4.0,6.9,44,0.00,OVC,SCT,0.00,0.0,WeatherDisplay:10.37,2013-01-12 23:02:00,
2013-01-12 17:07:00,18.1,-0.2,30.03,West,270,5.6,10.4,44,0.00,OVC,SCT,0.00,0.0,WeatherDisplay:10.37,2013-01-12 23:07:00,
2013-01-12 17:13:00,18.0,-0.3,30.06,WNW,292,5.4,9.8,44,0.00,OVC,SCT,0.00,0.0,WeatherDisplay:10.37,2013-01-12 23:13:00,
2013-01-12 17:15:00,8.2,-6.6,30.12,North,357,1.0,7.0,50,0.00,OVC,SCT,0.08,0.0,WeatherDisplay:10.37,2013-01-12 23:15:00,
2013-01-12 17:18:00,17.8,-0.5,30.06,NNW,338,4.7,8.7,44,0.00,OVC,SCT,0.00,0.0,WeatherDisplay:10.37,2013-01-12 23:18:00,
2013-01-12 17:23:00,17.8,-0.5,30.06,NNE,22,4.0,6.2,44,0.00,OVC,SCT,0.00,0.0,WeatherDisplay:10.37,2013-01-12 23:23:00,
2013-01-12 17:28:00,17.6,-0.2,30.06,ESE,112,4.7,5.8,45,0.00,OVC,SCT,0.00,0.0,WeatherDisplay:10.37,2013-01-12 23:28:00,
2013-01-12 17:30:00,7.9,-6.9,30.12,North,353,3.0,4.0,50,0.00,OVC,SCT,0.08,0.0,WeatherDisplay:10.37,2013-01-12 23:30:00,
2013-01-12 17:33:00,17.6,-0.2,30.06,WSW,248,5.4,7.6,45,0.00,OVC,SCT,0.00,0.0,WeatherDisplay:10.37,2013-01-12 23:33:00,
2013-01-12 17:38:00,17.4,-0.8,30.03,NNW,338,5.4,8.1,44,0.00,OVC,SCT,0.00,0.0,WeatherDisplay:10.37,2013-01-12 23:38:00,
2013-01-12 17:43:00,17.4,-0.8,30.03,SSW,202,5.6,6.9,44,0.00,OVC,SCT,0.00,0.0,WeatherDisplay:10.37,2013-01-12 23:43:00,
2013-01-12 17:45:00,7.7,-7.1,30.15,NNW,334,1.0,4.0,50,0.00,OVC,SCT,0.08,0.0,WeatherDisplay:10.37,2013-01-12 23:45:00,
2013-01-12 17:48:00,17.4,-0.3,30.03,NNW,338,6.2,7.8,45,0.00,CLR,SCT,0.00,0.0,WeatherDisplay:10.37,2013-01-12 23:48:00,
2013-01-12 17:53:00,17.4,-0.3,30.03,NNW,338,4.0,5.8,45,0.00,CLR,SCT,0.00,0.0,WeatherDisplay:10.37,2013-01-12 23:53:00,
2013-01-12 17:58:00,17.2,0.0,30.03,SSW,202,4.0,4.6,46,0.00,CLR,SCT,0.00,0.0,WeatherDisplay:10.37,2013-01-12 23:58:00,
2013-01-12 18:00:00,7.5,-7.3,30.15,NNW,330,2.0,5.0,50,0.00,OVC,SCT,0.08,0.0,WeatherDisplay:10.37,2013-01-13 00:00:00,
2013-01-12 18:04:00,17.2,0.0,30.03,NW,315,2.0,5.8,46,0.00,CLR,SCT,0.00,0.0,WeatherDisplay:10.37,2013-01-13 00:04:00,
2013-01-12 18:09:00,17.1,-0.2,30.06,ENE,68,3.1,3.5,46,0.00,CLR,SCT,0.00,0.0,WeatherDisplay:10.37,2013-01-13 00:09:00,
2013-01-12 18:14:00,17.1,0.3,30.06,South,180,4.7,9.2,47,0.00,CLR,SCT,0.00,0.0,WeatherDisplay:10.37,2013-01-13 00:14:00,
2013-01-12 18:15:00,7.3,-7.4,30.12,North,9,1.0,4.0,50,0.00,OVC,SCT,0.08,0.0,WeatherDisplay:10.37,2013-01-13 00:15:00,
2013-01-12 18:19:00,16.9,-0.4,30.06,North,0,4.7,8.5,46,0.00,CLR,SCT,0.00,0.0,WeatherDisplay:10.37,2013-01-13 00:19:00,
2013-01-12 18:24:00,16.7,-1.0,30.09,WSW,248,4.5,8.1,45,0.00,CLR,SCT,0.00,0.0,WeatherDisplay:10.37,2013-01-13 00:24:00,
2013-01-12 18:29:00,16.7,-0.5,30.09,NNE,22,4.3,4.6,46,0.00,CLR,SCT,0.00,0.0,WeatherDisplay:10.37,2013-01-13 00:29:00,
2013-01-12 18:30:00,7.2,-7.6,30.12,NNW,336,1.0,3.0,50,0.00,OVC,SCT,0.08,0.0,WeatherDisplay:10.37,2013-01-13 00:30:00,
2013-01-12 18:34:00,16.7,-0.5,30.09,NNW,338,3.6,5.9,46,0.00,CLR,SCT,0.00,0.0,WeatherDisplay:10.37,2013-01-13 00:34:00,
2013-01-12 18:39:00,16.5,-0.7,30.09,North,0,4.5,5.8,46,0.00,CLR,SCT,0.00,0.0,WeatherDisplay:10.37,2013-01-13 00:39:00,
2013-01-12 18:44:00,16.5,-1.2,30.09,NNE,22,3.6,6.4,45,0.00,CLR,SCT,0.00,0.0,WeatherDisplay:10.37,2013-01-13 00:44:00,
2013-01-12 18:45:00,7.0,-7.8,30.12,NNW,338,3.0,5.0,50,0.00,OVC,SCT,0.08,0.0,WeatherDisplay:10.37,2013-01-13 00:45:00,
2013-01-12 18:49:00,16.5,-1.2,30.09,NNE,22,2.2,3.5,45,0.00,CLR,SCT,0.00,0.0,WeatherDisplay:10.37,2013-01-13 00:49:00,
2013-01-12 18:54:00,16.3,-0.9,30.09,NNE,22,3.8,5.8,46,0.00,CLR,SCT,0.00,0.0,WeatherDisplay:10.37,2013-01-13 00:54:00,
2013-01-12 18:59:00,16.2,-1.0,30.09,North,0,2.6,4.6,46,0.00,CLR,SCT,0.00,0.0,WeatherDisplay:10.37,2013-01-13 00:59:00,
2013-01-12 19:00:00,7.0,-7.8,30.12,NW,316,2.0,3.0,50,0.00,OVC,SCT,0.08,0.0,WeatherDisplay:10.37,2013-01-13 01:00:00,
2013-01-12 19:04:00,16.2,-1.0,30.09,NNE,22,4.5,5.8,46,0.00,CLR,SCT,0.00,0.0,WeatherDisplay:10.37,2013-01-13 01:04:00,
2013-01-12 19:10:00,16.2,-1.0,30.09,NW,315,3.6,8.1,46,0.00,CLR,SCT,0.00,0.0,WeatherDisplay:10.37,2013-01-13 01:10:00,
2013-01-12 19:15:00,16.0,-1.2,30.09,West,270,3.6,5.8,46,0.00,CLR,SCT,0.00,0.0,WeatherDisplay:10.37,2013-01-13 01:15:00,
2013-01-12 19:20:00,16.0,-1.7,30.09,NNW,338,2.6,4.6,45,0.00,CLR,SCT,0.00,0.0,WeatherDisplay:10.37,2013-01-13 01:20:00,
2013-01-12 19:25:00,16.0,-1.7,30.09,WNW,292,4.9,7.4,45,0.00,CLR,SCT,0.00,0.0,WeatherDisplay:10.37,2013-01-13 01:25:00,
2013-01-12 19:30:00,15.8,-1.8,30.09,WNW,292,4.5,8.1,45,0.00,CLR,SCT,0.00,0.0,WeatherDisplay:10.37,2013-01-13 01:30:00,
2013-01-12 19:35:00,15.8,-1.8,30.09,NNE,22,3.3,5.8,45,0.00,CLR,SCT,0.00,0.0,WeatherDisplay:10.37,2013-01-13 01:35:00,
2013-01-12 19:40:00,15.6,-1.5,30.09,WNW,292,4.3,5.8,46,0.00,CLR,SCT,0.00,0.0,WeatherDisplay:10.37,2013-01-13 01:40:00,
2013-01-12 19:45:00,6.6,-8.1,30.15,NW,321,1.0,3.0,50,0.00,OVC,SCT,0.08,0.0,WeatherDisplay:10.37,2013-01-13 01:45:00,
2013-01-12 19:46:00,15.6,-1.5,30.09,NNW,338,2.2,5.8,46,0.00,CLR,SCT,0.00,0.0,WeatherDisplay:10.37,2013-01-13 01:46:00,
2013-01-12 19:51:00,15.4,-1.2,30.09,WSW,248,2.9,4.6,47,0.00,CLR,SCT,0.00,0.0,WeatherDisplay:10.37,2013-01-13 01:51:00,
2013-01-12 19:56:00,15.4,-1.2,30.09,NNW,338,2.6,4.6,47,0.00,CLR,SCT,0.00,0.0,WeatherDisplay:10.37,2013-01-13 01:56:00,
2013-01-12 20:00:00,6.8,-7.9,30.18,WNW,298,3.0,5.0,50,0.00,OVC,SCT,0.08,0.0,WeatherDisplay:10.37,2013-01-13 02:00:00,
2013-01-12 20:01:00,15.4,-1.2,30.09,North,0,5.4,5.8,47,0.00,CLR,SCT,0.00,0.0,WeatherDisplay:10.37,2013-01-13 02:01:00,
2013-01-12 20:06:00,15.4,-0.8,30.09,South,180,4.3,5.8,48,0.00,CLR,SCT,0.00,0.0,WeatherDisplay:10.37,2013-01-13 02:06:00,
2013-01-12 20:11:00,15.6,-0.6,30.12,WNW,292,3.1,5.8,48,0.00,CLR,SCT,0.00,0.0,WeatherDisplay:10.37,2013-01-13 02:11:00,
2013-01-12 20:15:00,7.0,-7.8,30.18,WNW,286,2.0,6.0,50,0.00,OVC,SCT,0.08,0.0,WeatherDisplay:10.37,2013-01-13 02:15:00,
2013-01-12 20:16:00,15.4,-0.8,30.12,NNE,22,4.0,5.8,48,0.00,CLR,SCT,0.00,0.0,WeatherDisplay:10.37,2013-01-13 02:16:00,
2013-01-12 20:21:00,15.4,-0.8,30.12,NNE,22,3.1,5.8,48,0.00,CLR,SCT,0.00,0.0,WeatherDisplay:10.37,2013-01-13 02:21:00,
2013-01-12 20:26:00,15.4,-1.2,30.09,NNW,338,2.2,5.8,47,0.00,CLR,SCT,0.00,0.0,WeatherDisplay:10.37,2013-01-13 02:26:00,
2013-01-12 20:31:00,15.3,-1.4,30.09,North,0,2.2,3.5,47,0.00,CLR,SCT,0.00,0.0,WeatherDisplay:10.37,2013-01-13 02:31:00,
2013-01-12 20:36:00,15.1,-1.1,30.09,NNW,338,3.6,4.6,48,0.00,CLR,SCT,0.00,0.0,WeatherDisplay:10.37,2013-01-13 02:36:00,
2013-01-12 20:41:00,15.1,-1.1,30.09,NW,315,2.9,5.4,48,0.00,CLR,SCT,0.00,0.0,WeatherDisplay:10.37,2013-01-13 02:41:00,
2013-01-12 20:46:00,15.3,-0.1,30.09,NNW,338,3.1,6.9,50,0.00,CLR,SCT,0.00,0.0,WeatherDisplay:10.37,2013-01-13 02:46:00,
2013-01-12 20:51:00,15.3,0.8,30.09,NNE,22,3.3,5.8,52,0.00,CLR,SCT,0.00,0.0,WeatherDisplay:10.37,2013-01-13 02:51:00,
2013-01-12 20:56:00,15.1,1.4,30.09,NNE,22,2.9,4.0,54,0.00,CLR,SCT,0.00,0.0,WeatherDisplay:10.37,2013-01-13 02:56:00,
2013-01-12 21:01:00,15.1,0.6,30.09,NNE,22,4.5,5.8,52,0.00,CLR,SCT,0.00,0.0,WeatherDisplay:10.37,2013-01-13 03:01:00,
2013-01-12 21:06:00,15.1,0.6,30.09,NNE,22,3.1,4.6,52,0.00,CLR,SCT,0.00,0.0,WeatherDisplay:10.37,2013-01-13 03:06:00,
2013-01-12 21:11:00,14.9,0.4,30.09,North,0,3.3,6.9,52,0.00,CLR,SCT,0.00,0.0,WeatherDisplay:10.37,2013-01-13 03:11:00,
2013-01-12 21:16:00,14.7,-0.2,30.09,WNW,292,4.3,6.9,51,0.00,CLR,SCT,0.00,0.0,WeatherDisplay:10.37,2013-01-13 03:16:00,
2013-01-12 21:22:00,14.5,-0.8,30.09,WNW,292,3.8,6.9,50,0.00,CLR,SCT,0.00,0.0,WeatherDisplay:10.37,2013-01-13 03:22:00,
2013-01-12 21:27:00,14.5,-0.3,30.09,NNW,338,2.9,4.6,51,0.00,CLR,SCT,0.00,0.0,WeatherDisplay:10.37,2013-01-13 03:27:00,
2013-01-12 21:32:00,14.5,0.1,30.09,NNW,338,3.3,6.2,52,0.00,CLR,SCT,0.00,0.0,WeatherDisplay:10.37,2013-01-13 03:32:00,
2013-01-12 21:37:00,14.5,0.1,30.09,ESE,112,3.3,9.2,52,0.00,CLR,SCT,0.00,0.0,WeatherDisplay:10.37,2013-01-13 03:37:00,
2013-01-12 21:42:00,14.4,-0.1,30.09,NNW,338,4.9,8.1,52,0.00,CLR,SCT,0.00,0.0,WeatherDisplay:10.37,2013-01-13 03:42:00,
2013-01-12 21:47:00,14.2,-0.7,30.09,WNW,292,6.2,12.7,51,0.00,CLR,SCT,0.00,0.0,WeatherDisplay:10.37,2013-01-13 03:47:00,
2013-01-12 21:52:00,13.6,-1.6,30.09,North,0,4.7,8.1,50,0.00,CLR,SCT,0.00,0.0,WeatherDisplay:10.37,2013-01-13 03:52:00,
2013-01-12 21:57:00,13.3,-1.9,30.09,North,0,4.7,6.9,50,0.00,CLR,SCT,0.00,0.0,WeatherDisplay:10.37,2013-01-13 03:57:00,
2013-01-12 22:02:00,12.9,-2.3,30.09,NW,315,5.6,6.9,50,0.00,CLR,SCT,0.00,0.0,WeatherDisplay:10.37,2013-01-13 04:02:00,
2013-01-12 22:07:00,12.7,-2.4,30.09,East,90,4.7,7.6,50,0.00,CLR,SCT,0.00,0.0,WeatherDisplay:10.37,2013-01-13 04:07:00,
2013-01-12 22:13:00,12.4,-2.8,30.09,NNW,338,6.0,6.9,50,0.00,CLR,SCT,0.00,0.0,WeatherDisplay:10.37,2013-01-13 04:13:00,
2013-01-12 22:18:00,12.2,-2.9,30.09,WNW,292,4.5,6.9,50,0.00,CLR,SCT,0.00,0.0,WeatherDisplay:10.37,2013-01-13 04:18:00,
2013-01-12 22:23:00,12.2,-2.9,30.09,NNE,22,2.9,10.4,50,0.00,CLR,SCT,0.00,0.0,WeatherDisplay:10.37,2013-01-13 04:23:00,
2013-01-12 22:28:00,12.0,-3.1,30.09,NNE,22,5.4,5.8,50,0.00,CLR,SCT,0.00,0.0,WeatherDisplay:10.37,2013-01-13 04:28:00,
2013-01-12 22:33:00,11.8,-3.3,30.09,WNW,292,2.6,5.8,50,0.00,CLR,SCT,0.00,0.0,WeatherDisplay:10.37,2013-01-13 04:33:00,
2013-01-12 22:38:00,11.7,-3.4,30.09,West,270,4.5,7.6,50,0.00,CLR,SCT,0.00,0.0,WeatherDisplay:10.37,2013-01-13 04:38:00,
2013-01-12 22:43:00,11.7,-3.4,30.09,NNE,22,3.3,5.8,50,0.00,CLR,SCT,0.00,0.0,WeatherDisplay:10.37,2013-01-13 04:43:00,
2013-01-12 22:48:00,11.5,-3.6,30.09,NNE,22,2.9,4.7,50,0.00,CLR,SCT,0.00,0.0,WeatherDisplay:10.37,2013-01-13 04:48:00,
2013-01-12 22:53:00,11.3,-3.8,30.09,NNW,338,4.3,5.8,50,0.00,CLR,SCT,0.00,0.0,WeatherDisplay:10.37,2013-01-13 04:53:00,
2013-01-12 22:58:00,11.3,-3.8,30.09,NW,315,4.7,7.6,50,0.00,CLR,SCT,0.00,0.0,WeatherDisplay:10.37,2013-01-13 04:58:00,
2013-01-12 23:01:00,11.1,-3.9,30.09,NNW,338,3.3,5.8,50,0.00,CLR,SCT,0.00,0.0,WeatherDisplay:10.37,2013-01-13 05:01:00,
2013-01-12 23:02:00,11.1,-3.9,30.09,NNW,338,3.8,6.9,50,0.00,CLR,SCT,0.00,0.0,WeatherDisplay:10.37,2013-01-13 05:02:00,
2013-01-12 23:03:00,11.1,-3.9,30.09,WSW,248,3.8,6.9,50,0.00,CLR,SCT,0.00,0.0,WeatherDisplay:10.37,2013-01-13 05:03:00,
2013-01-12 23:08:00,11.1,-3.9,30.09,NNW,338,2.4,5.8,50,0.00,CLR,SCT,0.00,0.0,WeatherDisplay:10.37,2013-01-13 05:08:00,
2013-01-12 23:13:00,10.9,-4.1,30.09,WNW,292,3.3,5.8,50,0.00,CLR,SCT,0.00,0.0,WeatherDisplay:10.37,2013-01-13 05:13:00,
2013-01-12 23:18:00,10.9,-4.1,30.09,NNE,22,3.6,5.8,50,0.00,CLR,SCT,0.00,0.0,WeatherDisplay:10.37,2013-01-13 05:18:00,
2013-01-12 23:23:00,10.8,-4.3,30.09,NW,315,3.3,5.8,50,0.00,CLR,SCT,0.00,0.0,WeatherDisplay:10.37,2013-01-13 05:23:00,
2013-01-12 23:28:00,10.8,-4.3,30.09,NNE,22,2.2,4.6,50,0.00,CLR,SCT,0.00,0.0,WeatherDisplay:10.37,2013-01-13 05:28:00,
2013-01-12 23:33:00,10.4,-4.6,30.09,WNW,292,4.5,5.8,50,0.00,CLR,SCT,0.00,0.0,WeatherDisplay:10.37,2013-01-13 05:33:00,
2013-01-12 23:38:00,10.4,-4.6,30.09,North,0,4.9,5.8,50,0.00,CLR,SCT,0.00,0.0,WeatherDisplay:10.37,2013-01-13 05:38:00,
2013-01-12 23:43:00,10.2,-4.8,30.09,NW,315,3.8,7.6,50,0.00,CLR,SCT,0.00,0.0,WeatherDisplay:10.37,2013-01-13 05:43:00,
2013-01-12 23:48:00,10.2,-4.8,30.09,WNW,292,4.3,5.9,50,0.00,CLR,SCT,0.00,0.0,WeatherDisplay:10.37,2013-01-13 05:48:00,
2013-01-12 23:54:00,10.0,-4.9,30.12,NNW,338,4.9,8.1,50,0.00,CLR,SCT,0.00,0.0,WeatherDisplay:10.37,2013-01-13 05:54:00,
2013-01-12 23:59:00,10.0,-4.9,30.12,NW,315,6.9,13.8,50,0.00,CLR,SCT,0.00,0.0,WeatherDisplay:10.37,2013-01-13 05:59:00,